#timestamp,LO_Frequency,Hit,StdDev 
1600027215.4,286046996.5,N
1600027235.2,286046997.4,N
1600027255.1,286046995.1,N
1600027256.0,286046995.1,N
1600027275.8,286046997.5,N
1600027295.6,286046995.2,N
1600027315.5,286046995.5,N
1600027335.3,286046997.5,N
1600027355.2,286046996.0,N
1600027375.9,286046997.5,N
1600027395.7,286046997.6,N
1600027415.6,286046994.5,Y
1600027435.4,286046999.1,P
1600027455.2,286046995.3,P
1600027475.1,286046997.2,N
1600027476.0,286046997.2,N
1600027495.8,286046996.9,N
1600027515.7,286046999.1,N
1600027535.5,286047002.2,N
1600027555.3,286047004.4,N
1600027575.2,286047004.4,N
1600027595.0,286047003.5,N
1600027595.9,286047003.5,N
1600027615.7,286047002.9,N
1600027635.6,286047004.8,N
1600027655.4,286047005.5,N
1600027675.3,286047003.0,N
1600027695.1,286047002.3,N
1600027696.0,286047002.3,N
1600027715.8,286047003.6,N
1600027735.7,286047003.1,N
1600027755.5,286047004.2,N
1600027775.3,286047000.2,N
1600027795.2,286047000.5,N
1600027815.0,286046999.8,N
1600027815.9,286046999.8,N
1600027835.8,286046998.6,N
1600027855.6,286046996.7,N
1600027875.4,286046997.0,N
1600027895.3,286046995.4,N
1600027915.1,286046999.5,N
1600027935.9,286047000.3,N
1600027955.7,286047002.8,N
1600027975.5,286047000.6,N
1600027995.4,286046998.9,N
1600028015.2,286047000.0,N
1600028035.1,286047000.3,N
1600028036.0,286047000.3,N
1600028055.8,286046999.7,N
1600028075.6,286047002.5,N
1600028095.5,286047000.3,N
1600028115.3,286047000.2,N
1600028135.1,286047000.7,N
1600028155.9,286047001.0,N
1600028175.7,286047001.0,N
1600028195.6,286047000.6,N
1600028215.4,286046999.7,N
1600028235.2,286046999.7,N
1600028255.1,286047000.6,N
1600028256.0,286047000.6,N
1600028275.8,286046999.9,N
1600028295.6,286047000.6,N
1600028315.5,286046998.1,N
1600028335.3,286046999.4,N
1600028355.2,286047001.0,N
1600028375.9,286047000.3,N
1600028395.7,286046999.9,N
1600028415.6,286047002.8,N
1600028435.4,286047001.9,N
1600028455.3,286047004.3,Y
1600028475.1,286047002.6,P
1600028476.0,286047002.6,N
1600028495.8,286047001.8,N
1600028515.7,286047003.2,Y
1600028535.5,286047002.4,P
1600028555.4,286047000.7,N
1600028575.2,286046999.3,N
1600028595.0,286046998.3,N
1600028595.9,286046998.3,N
1600028615.8,286047000.8,N
1600028635.6,286047000.3,N
1600028655.4,286047000.8,N
1600028675.3,286046999.4,N
1600028695.1,286046999.4,N
1600028715.9,286047000.6,N
1600028735.7,286046999.3,N
1600028755.5,286046998.8,N
1600028775.4,286046998.9,N
1600028795.2,286046997.1,N
1600028815.0,286046999.0,N
1600028815.9,286046999.0,N
1600028835.8,286046996.8,N
1600028855.6,286046997.3,N
1600028875.5,286046997.5,N
1600028895.3,286046997.1,N
1600028915.1,286046999.6,N
1600028935.9,286047001.2,N
1600028955.7,286047000.7,N
1600028975.5,286046999.3,N
1600028995.4,286046999.3,N
1600029015.2,286046996.8,N
1600029035.1,286046996.5,N
1600029036.0,286046996.5,N
1600029055.8,286046998.7,N
1600029075.6,286047001.1,N
1600029095.5,286046998.1,N
1600029115.3,286046999.3,N
1600029135.2,286046998.8,N
1600029155.9,286046998.7,N
1600029175.7,286047001.7,N
1600029195.6,286047004.3,N
1600029215.4,286047002.6,N
1600029235.2,286046999.5,N
1600029255.1,286046999.2,N
1600029256.0,286046999.2,N
1600029275.8,286046999.4,N
1600029295.7,286046998.1,N
1600029315.5,286046996.6,N
1600029335.3,286046999.3,N
1600029355.2,286046998.8,N
1600029375.0,286046996.5,N
1600029375.9,286046996.5,N
1600029395.8,286046998.8,N
1600029415.6,286047000.9,N
1600029435.4,286046999.9,N
1600029455.3,286046998.3,N
1600029475.1,286046996.6,N
1600029495.9,286047000.3,N
1600029515.7,286047003.7,N
1600029535.5,286047005.6,N
1600029555.4,286047001.7,N
1600029575.2,286047004.2,N
1600029595.0,286047002.2,N
1600029595.9,286047002.2,N
1600029615.8,286047002.8,N
1600029635.6,286047000.2,N
1600029655.5,286047000.1,N
1600029675.3,286046999.0,N
1600029695.1,286047002.2,N
1600029715.9,286047003.7,N
1600029735.7,286047001.3,N
1600029755.5,286047001.9,N
1600029775.4,286047002.4,N
1600029795.2,286046998.8,N
1600029815.1,286046997.3,N
1600029816.0,286046997.3,N
1600029835.8,286046996.7,N
1600029855.6,286046999.2,N
1600029875.5,286046998.7,N
1600029895.3,286047000.4,N
1600029915.2,286047000.1,N
1600029935.9,286047003.2,N
1600029955.7,286047005.7,N
1600029975.6,286047004.9,N
1600029995.4,286047004.8,N
1600030015.2,286047005.0,N
1600030035.1,286047003.1,N
1600030036.0,286047003.1,N
1600030055.8,286047005.3,N
1600030075.7,286047005.4,N
1600030095.5,286047005.8,N
1600030115.3,286047004.3,N
1600030135.2,286047001.8,N
1600030155.0,286047001.5,N
1600030155.9,286047001.5,N
1600030175.8,286047000.2,N
1600030195.6,286047000.6,N
1600030215.4,286046998.2,N
1600030235.3,286046999.4,N
1600030255.1,286047000.6,N
1600030275.8,286046999.9,N
1600030295.7,286047002.7,N
1600030315.5,286046999.8,N
1600030335.4,286046999.0,N
1600030355.2,286047001.2,N
1600030375.0,286047001.0,N
1600030375.9,286047001.0,N
1600030395.8,286047000.4,N
1600030415.6,286047000.3,N
1600030435.4,286047001.2,N
1600030455.3,286046999.0,N
1600030475.1,286046998.9,N
1600030495.9,286047000.1,N
1600030515.7,286047002.3,N
1600030535.5,286047002.0,N
1600030555.4,286047001.9,N
1600030575.2,286047002.5,N
1600030595.1,286047002.5,N
1600030596.0,286047002.5,N
1600030615.8,286046998.3,N
1600030635.6,286046999.0,N
1600030655.5,286046996.5,N
1600030675.3,286046999.4,N
1600030695.1,286046996.5,N
1600030715.9,286046999.0,N
1600030735.7,286047000.3,N
1600030755.6,286046999.8,N
1600030775.4,286046998.2,N
1600030795.2,286046999.4,N
